Regional Weather Roundup
Issued by NWS

Home | Current Version | Previous Version | Graphics & Text | Print | Product List | Glossary On
Versions: 1 2 3 4 5 6 7 8 9 10 11 12 13 14 15 16 17 18 19 20 21 22 23 24 25 26 27 28 29 30 31 32 33 34 35 36 37 38 39 40 41 42 43 44 45 46 47 48 49 50
000
ASUS43 KTOP 231408
RWRKS

WEATHER ROUNDUP FOR KANSAS
NATIONAL WEATHER SERVICE GOODLAND KS
900 AM CDT SAT MAY 23 2015

NOTE:  "FAIR" INDICATES FEW OR NO CLOUDS BELOW 12,000 FEET WITH NO
SIGNIFICANT WEATHER AND/OR OBSTRUCTIONS TO VISIBILITY.

KSZ001>006-013>018-027>032-041>047-231500-
NORTHWEST KANSAS

CITY           SKY/WX    TMP DP  RH WIND       PRES   REMARKS
GOODLAND       FOG       52  52 100 SE17G28   30.05S VSB 1
HAYS           CLOUDY    55  48  76 SE13      30.12S
HILL CITY      CLOUDY    55  53  93 SE9G21    30.08S
RUSSELL        CLOUDY    56  55  97 SE13      30.12R
$$

KSZ061>065-074>080-084>089-231500-
SOUTHWEST KANSAS

CITY           SKY/WX    TMP DP  RH WIND       PRES   REMARKS
DODGE CITY     TSTM      53  52  96 SW16      30.16R VSB 1
ELKHART          N/A     54  45  72 E20         N/A
GARDEN CITY    TSTM      51  51 100 S10       30.13S FOG
GREAT BEND     CLOUDY    55  52  88 SE13      30.11R
LIBERAL        CLOUDY    57  54  88 S5        30.16R
PRATT          CLOUDY    54  54 100 SE12      30.13F FOG
$$

KSZ066>073-081>083-090>101-231500-
SOUTHEAST KANSAS

CITY           SKY/WX    TMP DP  RH WIND       PRES   REMARKS
CHANUTE        CLOUDY    58  57  97 SE8       30.22R
COFFEYVILLE    CLOUDY    59  57  93 E7        30.21R
HUTCHINSON     CLOUDY    58  55  90 SE12      30.16R FOG
MEDICINE LODGE   N/A     56  56 100 SE9       30.12F
NEWTON         CLOUDY    55  52  88 SE10      30.20R
PARSONS        LGT RAIN  59  57  93 VRB6      30.23R
WICHITA INTL   DRIZZLE   58  56  93 SE9       30.16R FOG
WICHITA JABRA  CLOUDY    57  56  96 SE8       30.17R FOG
WICHITA MCCONL LGT RAIN  57  57 100 E9        30.16S FOG
WINFIELD       CLOUDY    58  58 100 SE13      30.16F FOG
$$

KSZ007>012-019>026-033>040-048>060-102>105-231500-
NORTHEAST KANSAS

CITY           SKY/WX    TMP DP  RH WIND       PRES   REMARKS
CONCORDIA      CLOUDY    56  53  90 SE10      30.16S
EMPORIA        CLOUDY    58  56  93 SE16      30.19R
LAWRENCE       CLOUDY    62  54  74 SE10      30.21R
MANHATTAN      CLOUDY    60  56  86 S8        30.19R
MARYSVILLE     CLOUDY    55  54  94 S7        30.20R
OLATHE IND     PTSUNNY   59  55  87 SE13      30.23R
OLATHE EXE     CLOUDY    58  56  93 S10       30.22R
SALINA         CLOUDY    60  55  83 S8        30.17R
TOPEKA BILLARD CLOUDY    61  54  77 SE8       30.20R
TOPEKA FORBES  CLOUDY    61  54  77 S13       30.20R
$$


USA.gov is the U.S. government's official web portal to all federal, state and local government web resources and services.